Location: �clusier
(49.9361°N, 2.7869°E)
Time: 21:45:38
(UTC+00:00)

Cosmos 1850 Rocket - Pass Details

Date: 16 June 2021
Orbit: 755 x 785 km, 74.0° (Epoch: 01 August)

Event Time Altitude Azimuth Distance (km) Brightness Sun altitude
Rises 21:02:53 0° 335° (NNW) 3,279 9.2 -7.9°
Reaches altitude 10° 21:05:17 10° 334° (NNW) 2,343 8.1 -8.1°
Maximum altitude 21:10:36 76° 250° (WSW) 802 4.2 -8.6°
Drops below altitude 10° 21:15:51 10° 165° (SSE) 2,307 5.9 -9.1°
Enters shadow 21:15:54 10° 165° (SSE) 2,328 5.9 -9.1°
